| time (UTC) | temp F | wind direction | speed MPH | gust MPH | rain 1hr in | rain 24hr in | rain mn in | humidity % | barometer mb |
| 20260903194533 | 74 | 187 | 7.0 | 17.0 | 0.00 | 0.00 | 0.00 | 21 | 1006.9 |
| 20260903193030 | 73 | 153 | 6.0 | 18.0 | 0.00 | 0.00 | 0.00 | 22 | 1007.0 |
| 20260903191538 | 72 | 231 | 8.0 | 13.0 | 0.00 | 0.00 | 0.00 | 22 | 1007.4 |
| 20260903190056 | 72 | 200 | 7.0 | 15.0 | 0.00 | 0.00 | 0.00 | 22 | 1007.6 |
| 20260903184604 | 71 | 172 | 5.0 | 12.0 | 0.00 | 0.00 | 0.00 | 23 | 1007.9 |
| 20260903183051 | 71 | 240 | 5.0 | 11.0 | 0.00 | 0.00 | 0.00 | 23 | 1008.2 |
| 20260903181553 | 70 | 218 | 4.0 | 12.0 | 0.00 | 0.00 | 0.00 | 23 | 1008.4 |
| 20260903180052 | 70 | 221 | 6.0 | 14.0 | 0.00 | 0.00 | 0.00 | 23 | 1008.8 |
| 20260903174547 | 69 | 239 | 7.0 | 14.0 | 0.00 | 0.00 | 0.00 | 24 | 1008.9 |
| 20260903173044 | 68 | 201 | 9.0 | 14.0 | 0.00 | 0.00 | 0.00 | 24 | 1009.2 |
| 20260903171545 | 67 | 224 | 4.0 | 13.0 | 0.00 | 0.00 | 0.00 | 25 | 1009.3 |
| 20260903170047 | 66 | 202 | 3.0 | 11.0 | 0.00 | 0.00 | 0.00 | 26 | 1009.4 |
| 20260903164541 | 65 | 238 | 6.0 | 12.0 | 0.00 | 0.00 | 0.00 | 26 | 1009.5 |
| 20260903163051 | 64 | 231 | 5.0 | 11.0 | 0.00 | 0.00 | 0.00 | 27 | 1009.5 |
| 20260903161537 | 64 | 207 | 4.0 | 15.0 | 0.00 | 0.00 | 0.00 | 27 | 1009.7 |
| 20260903160038 | 63 | 187 | 6.0 | 13.0 | 0.00 | 0.00 | 0.00 | 27 | 1009.8 |
| 20260903154534 | 63 | 220 | 6.0 | 11.0 | 0.00 | 0.00 | 0.00 | 27 | 1009.9 |
| 20260903153034 | 62 | 274 | 5.0 | 11.0 | 0.00 | 0.00 | 0.00 | 29 | 1010.2 |
| 20260903151533 | 60 | 219 | 7.0 | 10.0 | 0.00 | 0.00 | 0.00 | 30 | 1010.3 |
| 20260903150032 | 57 | 231 | 4.0 | 8.0 | 0.00 | 0.00 | 0.00 | 32 | 1010.4 |
| 20260903144530 | 56 | 205 | 3.0 | 8.0 | 0.00 | 0.00 | 0.00 | 33 | 1010.4 |
| 20260903143028 | 55 | 195 | 5.0 | 10.0 | 0.00 | 0.00 | 0.00 | 33 | 1010.4 |
| 20260903141526 | 55 | 241 | 3.0 | 7.0 | 0.00 | 0.00 | 0.00 | 33 | 1010.1 |
| 20260903140025 | 54 | 225 | 2.0 | 5.0 | 0.00 | 0.00 | 0.00 | 33 | 1010.0 |
| 20260903134522 | 53 | 237 | 1.0 | 4.0 | 0.00 | 0.00 | 0.00 | 33 | 1009.9 |
| 20260903133021 | 54 | 237 | 1.0 | 6.0 | 0.00 | 0.00 | 0.00 | 33 | 1009.7 |
| 20260903131520 | 55 | 226 | 2.0 | 8.0 | 0.00 | 0.00 | 0.00 | 32 | 1009.5 |
| 20260903130019 | 55 | 200 | 5.0 | 11.0 | 0.00 | 0.00 | 0.00 | 31 | 1009.4 |
| 20260903124517 | 56 | 218 | 5.0 | 10.0 | 0.00 | 0.00 | 0.00 | 29 | 1009.4 |
| 20260903123016 | 56 | 216 | 6.0 | 9.0 | 0.00 | 0.00 | 0.00 | 29 | 1009.2 |
| 20260903121524 | 56 | 209 | 5.0 | 9.0 | 0.00 | 0.00 | 0.00 | 30 | 1009.3 |
| 20260903120016 | 55 | 189 | 3.0 | 7.0 | 0.00 | 0.00 | 0.00 | 31 | 1009.2 |
| 20260903114512 | 55 | 208 | 4.0 | 8.0 | 0.00 | 0.00 | 0.00 | 30 | 1009.3 |
| 20260903113012 | 55 | 202 | 3.0 | 9.0 | 0.00 | 0.00 | 0.00 | 30 | 1009.1 |
| 20260903111511 | 56 | 205 | 4.0 | 8.0 | 0.00 | 0.00 | 0.00 | 30 | 1009.2 |
| 20260903110010 | 55 | 243 | 3.0 | 8.0 | 0.00 | 0.00 | 0.00 | 30 | 1009.2 |
| 20260903104509 | 55 | 210 | 2.0 | 6.0 | 0.00 | 0.00 | 0.00 | 32 | 1009.2 |
| 20260903103007 | 54 | 193 | 0.0 | 2.0 | 0.00 | 0.00 | 0.00 | 33 | 1009.2 |
| 20260903101509 | 55 | 211 | 0.0 | 2.0 | 0.00 | 0.00 | 0.00 | 32 | 1009.2 |
| 20260903100006 | 56 | 214 | 0.0 | 1.0 | 0.00 | 0.00 | 0.00 | 35 | 1009.2 |
| 20260903094503 | 55 | 187 | 0.0 | 1.0 | 0.00 | 0.00 | 0.00 | 35 | 1009.3 |
| 20260903093003 | 54 | 199 | 0.0 | 2.0 | 0.00 | 0.00 | 0.00 | 33 | 1009.3 |
| 20260903091502 | 53 | 146 | 0.0 | 2.0 | 0.00 | 0.00 | 0.00 | 35 | 1009.3 |
| 20260903090001 | 52 | 213 | 0.0 | 1.0 | 0.00 | 0.00 | 0.00 | 34 | 1009.5 |
| 20260903084558 | 52 | 244 | 0.0 | 1.0 | 0.00 | 0.00 | 0.00 | 34 | 1009.6 |
| 20260903083055 | 54 | 154 | 0.0 | 0.0 | 0.00 | 0.00 | 0.00 | 33 | 1009.5 |
| 20260903081556 | 54 | 155 | 0.0 | 1.0 | 0.00 | 0.00 | 0.00 | 33 | 1009.5 |
| 20260903080054 | 54 | 153 | 0.0 | 1.0 | 0.00 | 0.00 | 0.00 | 33 | 1009.4 |
| 20260903074617 | 54 | 148 | 0.0 | 2.0 | 0.00 | 0.00 | 0.00 | 32 | 1009.4 |
| 20260903073057 | 54 | 139 | 0.0 | 0.0 | 0.00 | 0.00 | 0.00 | 32 | 1009.4 |
| 20260903071549 | 54 | 140 | 0.0 | 0.0 | 0.00 | 0.00 | 0.00 | 32 | 1009.2 |
| 20260903070049 | 55 | 140 | 0.0 | 0.0 | 0.00 | 0.00 | 0.00 | 31 | 1009.1 |
| 20260903064517 | 55 | 140 | 0.0 | 1.0 | 0.00 | 0.00 | 0.00 | 31 | 1009.1 |
| 20260903063019 | 55 | 142 | 0.0 | 2.0 | 0.00 | 0.00 | 0.00 | 30 | 1009.2 |
| 20260903061559 | 55 | 139 | 0.0 | 1.0 | 0.00 | 0.00 | 0.00 | 30 | 1009.2 |
| 20260903060043 | 55 | 119 | 0.0 | 1.0 | 0.00 | 0.00 | 0.00 | 30 | 1009.3 |
| 20260903054541 | 56 | 162 | 0.0 | 0.0 | 0.00 | 0.00 | 0.00 | 29 | 1009.4 |
| 20260903053040 | 56 | 139 | 0.0 | 2.0 | 0.00 | 0.00 | 0.00 | 28 | 1009.6 |
| 20260903051539 | 56 | 145 | 0.0 | 2.0 | 0.00 | 0.00 | 0.00 | 28 | 1009.7 |
| 20260903050039 | 56 | 139 | 0.0 | 1.0 | 0.00 | 0.00 | 0.00 | 28 | 1009.9 |
| 20260903044531 | 57 | 203 | 0.0 | 0.0 | 0.00 | 0.00 | 0.00 | 27 | 1009.8 |
| 20260903043032 | 58 | 203 | 0.0 | 0.0 | 0.00 | 0.00 | 0.00 | 26 | 1009.7 |
| 20260903041532 | 58 | 273 | 0.0 | 1.0 | 0.00 | 0.00 | 0.00 | 25 | 1009.6 |
| 20260903040022 | 59 | 139 | 0.0 | 0.0 | 0.00 | 0.00 | 0.00 | 25 | 1009.1 |
| 20260903034621 | 59 | 200 | 0.0 | 0.0 | 0.00 | 0.00 | 0.00 | 25 | 1009.0 |
| 20260903033049 | 60 | 273 | 0.0 | 0.0 | 0.00 | 0.00 | 0.00 | 25 | 1008.9 |
| 20260903031545 | 60 | 274 | 0.0 | 1.0 | 0.00 | 0.00 | 0.00 | 24 | 1008.7 |
| 20260903030042 | 60 | 323 | 0.0 | 3.0 | 0.00 | 0.00 | 0.00 | 25 | 1008.7 |
| 20260903024542 | 61 | 234 | 0.0 | 1.0 | 0.00 | 0.00 | 0.00 | 24 | 1008.4 |
| 20260903023038 | 61 | 291 | 0.0 | 1.0 | 0.00 | 0.00 | 0.00 | 23 | 1008.3 |
| 20260903021538 | 62 | 295 | 0.0 | 1.0 | 0.00 | 0.00 | 0.00 | 23 | 1008.1 |
| 20260903020038 | 63 | 310 | 0.0 | 5.0 | 0.00 | 0.00 | 0.00 | 22 | 1008.0 |
| 20260903014528 | 64 | 301 | 1.0 | 7.0 | 0.00 | 0.00 | 0.00 | 21 | 1008.0 |
| 20260903013021 | 65 | 306 | 4.0 | 8.0 | 0.00 | 0.00 | 0.00 | 20 | 1007.9 |
| 20260903011519 | 66 | 293 | 5.0 | 9.0 | 0.00 | 0.00 | 0.00 | 18 | 1007.8 |
| 20260903010014 | 66 | 285 | 4.0 | 9.0 | 0.00 | 0.00 | 0.00 | 18 | 1007.6 |
| 20260903004511 | 67 | 276 | 3.0 | 7.0 | 0.00 | 0.00 | 0.00 | 18 | 1007.3 |
| 20260903003008 | 67 | 292 | 3.0 | 9.0 | 0.00 | 0.00 | 0.00 | 17 | 1007.3 |
| 20260903001506 | 68 | 322 | 5.0 | 9.0 | 0.00 | 0.00 | 0.00 | 17 | 1007.2 |
| 20260903000002 | 68 | 290 | 8.0 | 12.0 | 0.00 | 0.00 | 0.00 | 17 | 1007.3 |
| 20260902234609 | 69 | 292 | 6.0 | 12.0 | 0.00 | 0.00 | 0.00 | 17 | 1007.3 |
| 20260902233059 | 70 | 282 | 3.0 | 12.0 | 0.00 | 0.00 | 0.00 | 16 | 1007.2 |
| 20260902231559 | 71 | 283 | 5.0 | 13.0 | 0.00 | 0.00 | 0.00 | 15 | 1007.2 |
| 20260902230100 | 72 | 284 | 9.0 | 12.0 | 0.00 | 0.00 | 0.00 | 15 | 1007.1 |
| 20260902224601 | 71 | 293 | 3.0 | 9.0 | 0.00 | 0.00 | 0.00 | 15 | 1007.4 |
| 20260902223055 | 70 | 282 | 3.0 | 11.0 | 0.00 | 0.00 | 0.00 | 15 | 1007.5 |
| 20260902221554 | 70 | 282 | 5.0 | 12.0 | 0.00 | 0.00 | 0.00 | 16 | 1007.7 |
| 20260902220057 | 70 | 266 | 4.0 | 12.0 | 0.00 | 0.00 | 0.00 | 16 | 1007.7 |
| 20260902214555 | 71 | 278 | 5.0 | 12.0 | 0.00 | 0.00 | 0.00 | 15 | 1007.7 |
| 20260902213051 | 71 | 220 | 9.0 | 18.0 | 0.00 | 0.00 | 0.00 | 15 | 1007.8 |
| 20260902211550 | 70 | 272 | 8.0 | 14.0 | 0.00 | 0.00 | 0.00 | 16 | 1008.0 |
| 20260902210048 | 69 | 227 | 5.0 | 10.0 | 0.00 | 0.00 | 0.00 | 16 | 1008.0 |
| 20260902204551 | 69 | 234 | 4.0 | 12.0 | 0.00 | 0.00 | 0.00 | 17 | 1008.0 |
| 20260902203048 | 70 | 224 | 5.0 | 13.0 | 0.00 | 0.00 | 0.00 | 17 | 1008.0 |
| 20260902201554 | 69 | 256 | 7.0 | 15.0 | 0.00 | 0.00 | 0.00 | 16 | 1008.0 |
| 20260902200046 | 69 | 302 | 4.0 | 11.0 | 0.00 | 0.00 | 0.00 | 17 | 1008.0 |